TimeEDT,TemperatureF,Dew PointF,Humidity,Sea Level PressureIn,VisibilityMPH,Wind Direction,Wind SpeedMPH,Gust SpeedMPH,PrecipitationIn,Events,Conditions,WindDirDegrees,DateUTC
12:53 AM,79.0,75.0,88,30.03,10.0,Calm,Calm,-,N/A,,Clear,0,2012-09-28 04:53:00
1:53 AM,79.0,75.9,90,30.01,10.0,Calm,Calm,-,N/A,,Clear,0,2012-09-28 05:53:00
2:53 AM,78.1,73.0,84,29.99,10.0,ENE,4.6,-,N/A,,Clear,70,2012-09-28 06:53:00
3:53 AM,78.1,73.0,84,29.97,10.0,NE,3.5,-,N/A,,Clear,40,2012-09-28 07:53:00
4:53 AM,78.1,75.0,90,29.96,10.0,NE,3.5,-,N/A,,Clear,40,2012-09-28 08:53:00
5:53 AM,79.0,75.0,88,29.98,10.0,Calm,Calm,-,N/A,,Clear,0,2012-09-28 09:53:00
6:53 AM,79.0,75.0,88,30.00,10.0,NE,3.5,-,N/A,,Clear,40,2012-09-28 10:53:00
7:53 AM,79.0,75.9,90,29.99,10.0,Calm,Calm,-,N/A,,Clear,0,2012-09-28 11:53:00
8:53 AM,82.9,75.9,79,30.01,10.0,NNE,5.8,-,N/A,,Clear,30,2012-09-28 12:53:00
9:53 AM,84.0,77.0,79,30.03,10.0,Variable,4.6,-,N/A,,Clear,0,2012-09-28 13:53:00
10:53 AM,86.0,77.0,74,30.02,10.0,NE,9.2,-,N/A,,Scattered Clouds,50,2012-09-28 14:53:00
11:14 AM,84.2,75.2,74,30.02,10.0,ENE,9.2,-,N/A,,Mostly Cloudy,60,2012-09-28 15:14:00
11:23 AM,86.0,77.0,74,30.02,10.0,NE,10.4,17.3,N/A,,Scattered Clouds,40,2012-09-28 15:23:00
11:53 AM,86.0,75.9,72,30.01,10.0,NE,10.4,-,N/A,,Clear,40,2012-09-28 15:53:00
12:53 PM,86.0,75.9,72,30.00,10.0,NNE,9.2,-,N/A,,Scattered Clouds,30,2012-09-28 16:53:00
1:53 PM,86.0,75.9,72,29.98,10.0,ENE,11.5,-,N/A,,Clear,60,2012-09-28 17:53:00
2:53 PM,86.0,75.9,72,29.97,10.0,NE,8.1,-,N/A,,Scattered Clouds,50,2012-09-28 18:53:00
3:06 PM,78.8,73.4,83,29.98,1.5,SSE,18.4,25.3,0.05,Rain,Heavy Rain,150,2012-09-28 19:06:00
3:08 PM,77.0,71.6,83,29.97,1.0,SSE,13.8,25.3,0.15,Rain,Heavy Rain,160,2012-09-28 19:08:00
3:14 PM,78.8,71.6,78,29.97,1.2,ESE,12.7,20.7,0.29,Rain,Heavy Rain,110,2012-09-28 19:14:00
3:25 PM,77.0,69.8,78,29.97,2.5,ENE,10.4,-,0.48,Rain,Heavy Rain,70,2012-09-28 19:25:00
3:32 PM,77.0,71.6,83,29.97,5.0,East,10.4,-,0.51,Rain,Heavy Rain,80,2012-09-28 19:32:00
3:41 PM,78.8,73.4,83,29.96,3.0,North,9.2,-,0.59,Rain,Heavy Rain,10,2012-09-28 19:41:00
3:53 PM,78.1,73.9,87,29.95,6.0,NW,5.8,-,0.66,Rain,Rain,310,2012-09-28 19:53:00
4:53 PM,86.0,75.9,72,29.92,10.0,NNE,5.8,-,0.00,,Clear,20,2012-09-28 20:53:00
5:53 PM,84.0,75.0,74,29.96,10.0,East,3.5,-,N/A,,Mostly Cloudy,100,2012-09-28 21:53:00
6:06 PM,84.2,73.4,70,29.96,10.0,East,6.9,-,N/A,,Mostly Cloudy,100,2012-09-28 22:06:00
6:14 PM,82.4,73.4,74,29.96,5.0,South,4.6,-,0.03,Rain,Heavy Rain,170,2012-09-28 22:14:00
6:53 PM,82.0,75.9,82,29.95,10.0,Calm,Calm,-,0.04,,Scattered Clouds,0,2012-09-28 22:53:00
7:17 PM,82.4,75.2,79,29.95,10.0,Calm,Calm,-,N/A,,Mostly Cloudy,0,2012-09-28 23:17:00
7:49 PM,82.4,75.2,79,29.97,10.0,ESE,9.2,-,N/A,,Mostly Cloudy,110,2012-09-28 23:49:00
7:53 PM,82.0,75.0,79,29.97,10.0,ESE,9.2,-,N/A,,Mostly Cloudy,110,2012-09-28 23:53:00
8:53 PM,79.0,73.9,84,29.98,10.0,NE,4.6,-,0.00,Rain-Thunderstorm,Light Thunderstorms and Rain,50,2012-09-29 00:53:00
9:25 PM,78.8,75.2,89,29.99,10.0,Calm,Calm,-,0.00,,Clear,0,2012-09-29 01:25:00
9:53 PM,81.0,75.9,85,29.99,10.0,ESE,6.9,-,0.00,,Scattered Clouds,120,2012-09-29 01:53:00
10:40 PM,80.6,73.4,79,29.99,10.0,SSE,3.5,-,0.00,Thunderstorm,Partly Cloudy,160,2012-09-29 02:40:00
10:53 PM,80.1,75.0,85,29.98,10.0,Calm,Calm,-,0.00,Thunderstorm,Clear,0,2012-09-29 02:53:00
11:11 PM,80.6,73.4,79,29.98,10.0,SE,4.6,-,N/A,,Clear,140,2012-09-29 03:11:00
11:53 PM,79.0,75.0,88,29.97,10.0,Calm,Calm,-,N/A,,Clear,0,2012-09-29 03:53:00